Regional Weather Roundup
Issued by NWS Boston, MA

Home | Current Version | Previous Version | Text Only | Print | Product List | Glossary On
Versions: 1 2 3 4 5 6 7 8 9 10 11 12 13 14 15 16 17 18 19 20 21 22 23 24 25 26 27 28 29 30 31 32 33 34 35 36 37 38 39 40 41 42 43 44 45 46 47 48 49 50
000
ASUS41 KBOX 141310
RWRBOX

REGIONAL WEATHER ROUNDUP
NATIONAL WEATHER SERVICE TAUNTON MA
900 AM EDT MON JUL 14 2014

NOTE:  "FAIR" INDICATES FEW OR NO CLOUDS BELOW 12,000 FEET WITH NO
SIGNIFICANT WEATHER AND/OR OBSTRUCTIONS TO VISIBILITY.  THE FOLLOWING
OBSERVATION LOCATIONS DO NOT REPORT PRESENT WEATHER...PROVINCETOWN...
SMITHFIELD...BLOCK ISLAND...KEENE...AND OXFORD.

MAZALL-141400-
EASTERN MASSACHUSETTS

CITY           SKY/WX    TMP DP  RH WIND       PRES   REMARKS
BOSTON         CLOUDY    76  69  79 SW12      29.91S
BEVERLY        CLOUDY    75  71  87 SW9       29.90S
LAWRENCE       CLOUDY    77  71  82 VRB6      29.92S
BEDFORD        PTSUNNY   75  72  90 SW10      29.90S
BLUE HILL        N/A     72  70  93 SW7       29.93R
NORWOOD        CLOUDY    76  71  85 W5        29.91S
MARSHFIELD     MOSUNNY   79  70  73 SW8       29.93S
PLYMOUTH       PTSUNNY   77  68  73 SW12      29.93S
TAUNTON        PTSUNNY   77  70  79 SW7       29.92S
NEW BEDFORD    PTSUNNY   76  70  82 VRB6      29.92S
$$

MAZALL-141400-
CAPE COD AND THE ISLANDS

CITY           SKY/WX    TMP DP  RH WIND       PRES   REMARKS
FALMOUTH       CLOUDY    73  70  88 SW14G22   29.94S
HYANNIS        CLOUDY    75  70  84 S9        29.93S
CHATHAM        CLOUDY    73  70  90 SW9G20    29.95S
PROVINCETOWN   PTSUNNY   72  70  94 SW12      29.93S
NANTUCKET      CLOUDY    71  68  90 S14       29.96S
MARTHAS VNYRD  CLOUDY    71  68  90 SW12      29.95S
$$

MAZALL-141400-
CENTRAL AND WESTERN MASSACHUSETTS

CITY           SKY/WX    TMP DP  RH WIND       PRES   REMARKS
WORCESTER      CLOUDY    72  69  90 SW6       29.95S
FITCHBURG      MOSUNNY   80  69  69 NW5       29.92S
ORANGE           N/A    N/A N/A N/A MISG      29.93R
SPRINGFIELD    PTSUNNY   74  71  88 SW2       29.91S
WESTFIELD      PTSUNNY   79  69  71 SW3       29.91S
NORTH ADAMS    MOSUNNY   76  68  76 CALM      29.92S
PITTSFIELD     MOSUNNY   73  66  78 W3        29.94S
$$

RIZALL-141400-
RHODE ISLAND

CITY           SKY/WX    TMP DP  RH WIND       PRES   REMARKS
PROVIDENCE     PTSUNNY   78  70  76 SW7       29.93S
NEWPORT        CLOUDY    74  69  85 VRB6      29.93S
BLOCK ISLAND   CLOUDY    72  66  83 SW13      29.95R VSB 1/2
SMITHFIELD     CLOUDY    73  66  78 SW3       29.95S
WESTERLY       CLOUDY    73  69  87 W3        29.94S FOG
$$

CTZALL-141400-
CONNECTICUT

CITY           SKY/WX    TMP DP  RH WIND       PRES   REMARKS
BRADLEY INTL   PTSUNNY   78  70  76 SW6       29.91R
HARTFORD       PTSUNNY   76  69  79 S7        29.91S
BRIDGEPORT     CLOUDY    75  71  87 SW7       29.92S
DANBURY        PTSUNNY   73  68  84 SW5       29.94S
GROTON         PTSUNNY   73  71  93 S7        29.92S FOG
NEW HAVEN      CLOUDY    75  70  83 S6        29.92S
CHESTER        CLOUDY    73  70  88 W6        29.95R
MERIDEN        CLOUDY    74  69  85 S5        29.93R
WILLIMANTIC    CLOUDY    75  69  81 SW5       29.93R
OXFORD         CLOUDY    72  66  83 W3        29.96S
$$

MEZ002-015-021-024-NHZ003-005-008-011-012-014-VTZ005-008-141400-
NORTHERN NEW ENGLAND

CITY           SKY/WX    TMP DP  RH WIND       PRES   REMARKS
PORTLAND ME    MOSUNNY   74  68  81 SE6       29.89R
BANGOR ME      MOSUNNY   74  66  76 SW7       29.87R
CONCORD NH     SUNNY     77  69  76 SW5       29.90S
MANCHESTER NH  MOSUNNY   78  68  71 S3        29.89R
NASHUA NH      SUNNY     80  69  69 VRB5      29.91S
PORTSMOUTH NH  PTSUNNY   78  70  75 SW5       29.89R
JAFFREY NH     PTSUNNY   74  65  73 SW5       29.95S
KEENE NH       PTSUNNY   75  63  64 SW7       29.93S
BURLINGTON VT  MOSUNNY   75  65  70 SE6       29.87F
MT. WASHINGTON FOG       48  48 100 W38         N/A  VSB 1/8
$$

NYZ052-076-141400-
EASTERN NEW YORK

CITY           SKY/WX    TMP DP  RH WIND       PRES   REMARKS
ALBANY         MOSUNNY   75  69  81 S5        29.91R
NEW YORK CITY  CLOUDY    76  69  79 W5        29.92S
$$

ANZALL-141400-
MARINE OBSERVATIONS

STATION/POSITION TIME  TEMP    WIND        PRES    VSBY  WAVE
                       AIR SEA DIR/SP/G                  HT/PER
                 (UTC) (F)     (DEG/KT/KT) (MB)    (MI)  (FT/S)
BOSTON BUOY      NOT AVBL
BUZZARDS BAY     NOT AVBL
NANTUCKET SOUND  NOT AVBL
MASS BAY-STELLWA NOT AVBL
ISLE OF SHOALS   NOT AVBL
S OF BLOCK IS    NOT AVBL
$$

......................KEY.........................
  SKY/WX - SKY CONDITION/PRESENT WEATHER
  TMP    - TEMPERATURE IN FAHRENHEIT
  DWPT   - DEWPOINT IN FAHRENHEIT
  RH     - RELATIVE HUMIDITY IN PERCENT
  WIND   - DIRECTION AND SPEED IN MPH
  PRES   - MEAN SEA LEVEL PRESSURE IN INCHES OF HG
  WCI    - WIND CHILL INDEX
  VSB    - VISIBILITY IN MILES
  HX     - HEAT INDEX
  TC     - TEMPERATURE IN CELSIUS
  VRB    - VARIABLE WIND DIRECTION
  N/A    - NOT AVAILABLE



USA.gov is the U.S. government's official web portal to all federal, state and local government web resources and services.